EW1994 Weather Reports


Display with metric or nautical units.
time (UTC)temp
F
wind
direction
speed
MPH
gust
MPH
rain 1hr
in
rain 24hr
in
rain mn
in
humidity
%
barometer
mb
20260510010022 65 111 0.0 1.0 0.00 0.00 0.00 67 1017.6
20260510004505 65 111 0.0 1.0 0.00 0.00 0.00 67 1017.8
20260510003008 65 109 0.0 1.0 0.00 0.00 0.00 65 1017.8
20260510001521 66 109 0.0 2.0 0.00 0.00 0.00 64 1018.0
20260510000020 66 123 0.0 2.0 0.00 0.00 0.00 63 1018.2
20260509234520 67 66 0.0 2.0 0.00 0.00 0.00 61 1018.3
20260509233007 67 66 0.0 3.0 0.00 0.00 0.00 62 1018.3
20260509231511 67 125 0.0 3.0 0.00 0.00 0.00 60 1018.6
20260509230016 68 128 0.0 2.0 0.00 0.00 0.00 58 1018.7
20260509224521 69 177 0.0 2.0 0.00 0.00 0.00 57 1018.8
20260509223023 69 147 0.0 4.0 0.00 0.00 0.00 56 1018.7
20260509221510 68 323 0.0 2.0 0.00 0.00 0.00 58 1018.9
20260509220014 68 182 0.0 1.0 0.00 0.00 0.00 57 1019.1
20260509214530 69 63 0.0 4.0 0.00 0.00 0.00 57 1019.2
20260509213023 68 148 0.0 3.0 0.00 0.00 0.00 58 1019.4
20260509211526 68 167 0.0 4.0 0.00 0.00 0.00 55 1019.5
20260509210013 68 136 0.0 3.0 0.00 0.00 0.00 55 1019.5
20260509204527 68 84 0.0 2.0 0.00 0.00 0.00 58 1019.7
20260509203020 67 283 0.0 2.0 0.00 0.00 0.00 56 1019.9
20260509201525 67 37 0.0 2.0 0.00 0.00 0.00 58 1020.1
20260509200032 66 234 0.0 4.0 0.00 0.00 0.00 59 1020.4
20260509194515 66 204 0.0 4.0 0.00 0.00 0.00 60 1020.7
20260509193025 66 265 0.0 4.0 0.00 0.00 0.00 60 1020.9
20260509191524 66 115 0.0 4.0 0.00 0.00 0.00 60 1021.0
20260509190028 64 111 1.0 6.0 0.00 0.00 0.00 60 1021.1
20260509184511 65 217 0.0 3.0 0.00 0.00 0.00 63 1021.3
20260509183016 64 96 2.0 3.0 0.00 0.00 0.00 59 1021.3
20260509181521 63 11 1.0 3.0 0.00 0.00 0.00 63 1021.4
20260509180023 63 59 1.0 2.0 0.00 0.00 0.00 59 1021.4
20260509174524 62 159 1.0 5.0 0.00 0.00 0.00 65 1021.5
20260509173014 61 63 0.0 3.0 0.00 0.00 0.00 64 1021.6
20260509171519 61 71 0.0 3.0 0.00 0.00 0.00 69 1021.6
20260509170022 60 55 0.0 1.0 0.00 0.00 0.00 70 1021.8
20260509164525 59 57 0.0 2.0 0.00 0.00 0.00 75 1021.9
20260509163025 58 82 0.0 2.0 0.00 0.00 0.00 76 1022.1
20260509161514 57 96 0.0 2.0 0.00 0.00 0.00 79 1022.3
20260509160023 56 132 0.0 2.0 0.00 0.00 0.00 83 1022.4
20260509154527 55 132 0.0 2.0 0.00 0.00 0.00 86 1022.4
20260509153029 52 137 0.0 1.0 0.00 0.00 0.00 90 1022.4
20260509151527 49 138 0.0 0.0 0.00 0.00 0.00 92 1022.6
20260509150021 48 138 0.0 1.0 0.00 0.00 0.00 92 1022.7
20260509144523 46 138 0.0 0.0 0.00 0.00 0.00 92 1022.8
20260509143024 45 138 0.0 0.0 0.00 0.00 0.00 92 1022.9
20260509141529 44 138 0.0 0.0 0.00 0.00 0.00 92 1022.9
20260509140014 44 138 0.0 0.0 0.00 0.00 0.00 91 1023.0
20260509134518 44 138 0.0 0.0 0.00 0.00 0.00 91 1023.0
20260509133026 44 138 0.0 0.0 0.00 0.00 0.00 91 1023.0
20260509131535 44 138 0.0 0.0 0.00 0.00 0.00 91 1022.9
20260509130022 44 138 0.0 0.0 0.00 0.00 0.00 91 1022.8
20260509124522 44 138 0.0 0.0 0.00 0.00 0.00 91 1022.8
20260509123025 44 138 0.0 0.0 0.00 0.00 0.00 91 1022.8
20260509121536 45 138 0.0 0.0 0.00 0.00 0.00 90 1022.9
20260509120034 45 138 0.0 0.0 0.00 0.00 0.00 90 1022.9
20260509114513 45 138 0.0 0.0 0.00 0.00 0.00 90 1023.0
20260509113018 46 138 0.0 0.0 0.00 0.00 0.00 90 1023.1
20260509111522 46 138 0.0 0.0 0.00 0.00 0.00 90 1023.2
20260509110004 46 138 0.0 0.0 0.00 0.00 0.00 90 1023.2
20260509104508 46 138 0.0 0.0 0.00 0.00 0.00 90 1023.4
20260509103016 47 138 0.0 0.0 0.00 0.00 0.00 90 1023.5
20260509101523 46 138 0.0 0.0 0.00 0.00 0.00 90 1023.5
20260509100029 46 138 0.0 0.0 0.00 0.00 0.00 90 1023.6
20260509094508 46 138 0.0 0.0 0.00 0.00 0.00 89 1023.6
20260509093014 46 138 0.0 0.0 0.00 0.00 0.00 89 1023.6
20260509091520 46 138 0.0 0.0 0.00 0.00 0.00 89 1023.7
20260509090021 46 138 0.0 0.0 0.00 0.00 0.00 89 1023.7
20260509084534 47 138 0.0 0.0 0.00 0.00 0.00 88 1023.7
20260509083010 47 138 0.0 0.0 0.00 0.00 0.00 88 1023.8
20260509081516 47 138 0.0 0.0 0.00 0.00 0.00 87 1023.7
20260509080025 48 138 0.0 0.0 0.00 0.00 0.00 86 1023.7
20260509074523 48 138 0.0 0.0 0.00 0.00 0.00 86 1023.6
20260509073026 49 138 0.0 0.0 0.00 0.00 0.00 85 1023.5
20260509071512 49 138 0.0 0.0 0.00 0.00 0.00 84 1023.4
20260509070018 50 138 0.0 0.0 0.00 0.00 0.00 84 1023.2
20260509064522 50 138 0.0 0.0 0.00 0.00 0.00 84 1023.1
20260509063024 51 138 0.0 0.0 0.00 0.00 0.00 84 1023.2
20260509061531 51 138 0.0 0.0 0.00 0.00 0.00 84 1023.1
20260509060013 51 138 0.0 0.0 0.00 0.00 0.00 84 1023.0
20260509054517 51 138 0.0 0.0 0.00 0.00 0.00 84 1023.0
20260509053022 51 138 0.0 0.0 0.00 0.00 0.00 84 1023.0
20260509051527 51 138 0.0 0.0 0.00 0.00 0.00 83 1022.9
20260509050030 51 138 0.0 0.0 0.00 0.00 0.00 83 1022.9
20260509044513 51 138 0.0 0.0 0.00 0.00 0.00 82 1022.9
20260509043020 51 138 0.0 0.0 0.00 0.00 0.00 81 1022.8
20260509041534 52 138 0.0 0.0 0.00 0.00 0.00 79 1022.7
20260509040027 52 138 0.0 0.0 0.00 0.00 0.00 78 1022.5
20260509034530 54 138 0.0 0.0 0.00 0.00 0.00 76 1022.3
20260509033015 55 138 0.0 0.0 0.00 0.00 0.00 72 1022.3
20260509031522 56 138 0.0 0.0 0.00 0.00 0.00 71 1022.2
20260509030024 57 138 0.0 0.0 0.00 0.00 0.00 69 1022.1
20260509024526 58 138 0.0 1.0 0.00 0.00 0.00 63 1022.1
20260509023030 59 138 0.0 3.0 0.00 0.00 0.00 60 1021.9
20260509021522 60 146 0.0 4.0 0.00 0.00 0.00 59 1021.9
20260509020025 60 272 0.0 5.0 0.00 0.00 0.00 59 1021.9
20260509014524 60 157 0.0 0.0 0.00 0.00 0.00 57 1021.9
20260509013029 60 157 0.0 1.0 0.00 0.00 0.00 58 1021.9
20260509011531 60 169 0.0 4.0 0.00 0.00 0.00 58 1022.1